Regional Weather Roundup
Issued by NWS

Home | Current Version | Previous Version | Graphics & Text | Print | Product List | Glossary On
Versions: 1 2 3 4 5 6 7 8 9 10 11 12 13 14 15 16 17 18 19 20 21 22 23 24 25 26 27 28 29 30 31 32 33 34 35 36 37 38 39 40 41 42 43 44 45 46 47 48 49
000
ASUS45 KBOU 170807
RWRCO

WEATHER ROUNDUP FOR COLORADO
NATIONAL WEATHER SERVICE DENVER/BOULDER CO
200 AM MDT WED SEP 17 2014

NOTE: "FAIR" INDICATES FEW OR NO CLOUDS BELOW 12000 FEET WITH NO
SIGNIFICANT WEATHER AND/OR OBSTRUCTIONS TO VISIBILITY.

COZ001>005-013-030-031-170900-
...NORTHWEST COLORADO...

CITY           SKY/WX    TMP DP  RH WIND       PRES   REMARKS
CRAIG          CLEAR     44  38  79 NE3       30.20S
HAYDEN         CLEAR     52  36  54 E10       30.21F
MEEKER         CLEAR     53  38  56 NE8       30.22S
MOUNT WERNER   NOT AVBL
STEAMBOAT SPGS CLEAR     47  37  67 CALM      30.25R
WALDEN         CLEAR     37  32  81 SE8       30.32S
$$

COZ006>008-011-170900-
...WEST CENTRAL VALLEYS...

CITY           SKY/WX    TMP DP  RH WIND       PRES   REMARKS
GRAND JUNCTION CLEAR     60  42  51 SE7       30.08S
MONTROSE       PTCLDY    59  41  51 SE5       30.18S
EAGLE          CLEAR     48  39  71 CALM      30.28R
RIFLE          CLEAR     53  42  66 SE5       30.16S
DELTA          PTCLDY    62  41  46 E6        30.13S
NUCLA          PTCLDY    61  37  41 CALM      30.21S
$$

COZ017>023-064>068-170900-
...SOUTHWEST COLORADO...

CITY           SKY/WX    TMP DP  RH WIND       PRES   REMARKS
DURANGO        PTCLDY    57  45  64 N3        30.26S
CORTEZ         CLEAR     54  49  83 CALM      30.19S
PAGOSA SPRINGS PTCLDY    53  42  67 CALM      30.33S
TELLURIDE      NOT AVBL
WOLF CREEK PAS PTCLDY    43  37  81 SW9       30.59S
$$

COZ009-010-012-014-032>034-037-058>063-170900-
...CENTRAL COLORADO...

CITY           SKY/WX    TMP DP  RH WIND       PRES   REMARKS
ASPEN          CLEAR     48  35  60 S7          N/A
BUENA VISTA    CLEAR     51  32  49 N3        30.34R
COPPER MTN     CLEAR     54  30  40 W6        30.59F
BERTHOUD PASS  FAIR      41  37  87 NW14      30.63F
COTTONWOOD PAS CLEAR     57  28  33 W6        30.45F
GUNNISON       CLEAR     45  36  70 CALM      30.35S
KREMMLING      CLEAR     41  32  70 CALM      30.32S
LEADVILLE      CLEAR     40  29  64 NE6       30.45S
MONARCH PASS   CLEAR     46  30  53 SW7       30.69F
SALIDA         CLEAR     57  36  45 W6        30.37S
SUNLIGHT       CLEAR     55  32  41 CALM      30.53S
WILKERSON PASS NOT AVBL
$$

COZ069>075-170900-
...SAN LUIS VALLEY/SANGRE DE CRISTO MOUNTAINS...

CITY           SKY/WX    TMP DP  RH WIND       PRES   REMARKS
ALAMOSA        CLOUDY    50  43  77 E6        30.29R
LA VETA PASS   NOT AVBL
SAGUACHE       PTCLDY    50  34  53 NW6       30.33S
$$

COZ035-036-038>040-170900-
...NORTHERN COLORADO FRONT RANGE...

CITY           SKY/WX    TMP DP  RH WIND       PRES   REMARKS
DENVER INTL AP PTCLDY    59  40  49 S16       30.09F
DMNS CITY PARK   N/A     62  42  47 S7        30.10S
AURORA         PTCLDY    61  37  41 S14       30.12F
FRONT RANGE AP CLEAR     63  41  45 S12       30.10F
ERIE MUNI ARPT CLEAR     50  45  81 CALM      30.08S
BOULDER MUN AP CLEAR     57  43  58 CALM      30.08S
CENTENNIAL     PTCLDY    61  38  42 S7        30.13F
BROOMFIELD     CLEAR     61  39  44 SW6       30.11F
FORT COLLINS   CLEAR     57  45  62 N9        30.10S
LONGMONT       CLEAR     53  45  72 CALM      30.09F
$$

COZ041-046-047-076>085-087-088-170900-
...PIKES PEAK/PALMER DIVIDE AND SOUTHERN FOOTHILLS...

CITY           SKY/WX    TMP DP  RH WIND       PRES   REMARKS
COLO. SPRINGS  CLEAR     53  38  56 N9        30.19F
A. F. ACADEMY  CLEAR     48  38  68 N12       30.21F
ELLICOTT       NOT AVBL
FALCON         CLEAR     52  39  61 W3        30.24S
FORT CARSON    CLEAR     59  40  47 NW9       30.15F
LIMON          CLEAR     47  41  80 N5        30.12F
MONUMENT HILL  CLEAR     54  36  50 SW9       30.22F
TRINIDAD       CLOUDY    63  51  65 W17       30.15S
$$

COZ042>045-048>051-090-091-170900-
...NORTHEAST COLORADO...

CITY           SKY/WX    TMP DP  RH WIND       PRES   REMARKS
GREELEY ARPT   CLEAR     48  39  71 W5        30.07S
AKRON          CLEAR     60  44  55 S9        30.05F
BURLINGTON     CLEAR     54  47  77 SW5       30.03F
WRAY           CLEAR     53  48  85 SW7       30.00F
STERLING       CLEAR     55  48  76 CALM      30.03S
HOLYOKE        CLEAR     54  50  87 W3        30.01F
FORT MORGAN    CLEAR     56  41  56 W5        30.06S
$$

COZ086-089-092>099-170900-
...SOUTHEAST COLORADO...

CITY           SKY/WX    TMP DP  RH WIND       PRES   REMARKS
PUEBLO         CLEAR     57  44  62 W5        30.08R
LA JUNTA       CLEAR     62  46  55 S6        30.04F
LAMAR          CLEAR     55  52  89 W5        30.00R
SPRINGFIELD      N/A     60  57  89 W5        30.05F
$$



USA.gov is the U.S. government's official web portal to all federal, state and local government web resources and services.